Year,Month,Day,Hour,Minute,Value (Times are PST for temperature in C)
2016,02,24,00,00,7.90
2016,02,24,00,01,7.90
2016,02,24,00,02,7.90
2016,02,24,00,03,7.90
2016,02,24,00,04,7.90
2016,02,24,00,05,7.90
2016,02,24,00,06,7.90
2016,02,24,00,07,7.90
2016,02,24,00,08,7.90
2016,02,24,00,09,7.90
2016,02,24,00,10,7.90
2016,02,24,00,11,7.80
2016,02,24,00,12,7.80
2016,02,24,00,13,7.80
2016,02,24,00,14,7.80
2016,02,24,00,15,7.80
2016,02,24,00,16,7.80
2016,02,24,00,17,7.80
2016,02,24,00,18,7.80
2016,02,24,00,19,7.80
2016,02,24,00,20,7.80
2016,02,24,00,21,7.80
2016,02,24,00,22,7.80
2016,02,24,00,23,7.80
2016,02,24,00,24,7.70
2016,02,24,00,25,7.70
2016,02,24,00,26,7.70
2016,02,24,00,27,7.70
2016,02,24,00,28,7.70
2016,02,24,00,29,7.70
2016,02,24,00,30,7.60
2016,02,24,00,31,7.60
2016,02,24,00,32,7.60
2016,02,24,00,33,7.60
2016,02,24,00,34,7.60
2016,02,24,00,35,7.60
2016,02,24,00,36,7.60
2016,02,24,00,37,7.60
2016,02,24,00,38,7.60
2016,02,24,00,39,7.50
2016,02,24,00,40,7.50
2016,02,24,00,41,7.50
2016,02,24,00,42,7.50
2016,02,24,00,43,7.40
2016,02,24,00,44,7.40
2016,02,24,00,45,7.30
2016,02,24,00,46,7.30
2016,02,24,00,47,7.30
2016,02,24,00,48,7.30
2016,02,24,00,49,7.30
2016,02,24,00,50,7.30
2016,02,24,00,51,7.30
2016,02,24,00,52,7.30
2016,02,24,00,53,7.30
2016,02,24,00,54,7.30
2016,02,24,00,55,7.30
2016,02,24,00,56,7.30
2016,02,24,00,57,7.30
2016,02,24,00,58,7.30
2016,02,24,00,59,7.30
2016,02,24,01,00,7.30
2016,02,24,01,01,7.30
2016,02,24,01,02,7.30
2016,02,24,01,03,7.30
2016,02,24,01,04,7.30
2016,02,24,01,05,7.30
2016,02,24,01,06,7.30
2016,02,24,01,07,7.30
2016,02,24,01,08,7.30
2016,02,24,01,09,7.30
2016,02,24,01,10,7.30
2016,02,24,01,11,7.30
2016,02,24,01,12,7.30
2016,02,24,01,13,7.30
2016,02,24,01,14,7.30
2016,02,24,01,15,7.30
2016,02,24,01,16,7.30
2016,02,24,01,17,7.30
2016,02,24,01,18,7.30
2016,02,24,01,19,7.20
2016,02,24,01,20,7.20
2016,02,24,01,21,7.20
2016,02,24,01,22,7.30
2016,02,24,01,23,7.30
2016,02,24,01,24,7.30
2016,02,24,01,25,7.30
2016,02,24,01,26,7.30
2016,02,24,01,27,7.30
2016,02,24,01,28,7.30
2016,02,24,01,29,7.30
2016,02,24,01,30,7.30
2016,02,24,01,31,7.30
2016,02,24,01,32,7.30
2016,02,24,01,33,7.30
2016,02,24,01,34,7.30
2016,02,24,01,35,7.30
2016,02,24,01,36,7.30
2016,02,24,01,37,7.30
2016,02,24,01,38,7.30
2016,02,24,01,39,7.30
2016,02,24,01,40,7.30
2016,02,24,01,41,7.30
2016,02,24,01,42,7.30
2016,02,24,01,43,7.30
2016,02,24,01,44,7.30
2016,02,24,01,45,7.30
2016,02,24,01,46,7.30
2016,02,24,01,47,7.30
2016,02,24,01,48,7.30
2016,02,24,01,49,7.30
2016,02,24,01,50,7.30
2016,02,24,01,51,7.20
2016,02,24,01,52,7.20
2016,02,24,01,53,7.20
2016,02,24,01,54,7.20
2016,02,24,01,55,7.20
2016,02,24,01,56,7.20
2016,02,24,01,57,7.10
2016,02,24,01,58,7.10
2016,02,24,01,59,7.10
2016,02,24,02,00,7.10
2016,02,24,02,01,7.10
2016,02,24,02,02,7.10
2016,02,24,02,03,7.00
2016,02,24,02,04,7.00
2016,02,24,02,05,7.00
2016,02,24,02,06,7.00
2016,02,24,02,07,7.00
2016,02,24,02,08,7.00
2016,02,24,02,09,7.00
2016,02,24,02,10,7.00
2016,02,24,02,11,6.90
2016,02,24,02,12,6.90
2016,02,24,02,13,6.90
2016,02,24,02,14,6.90
2016,02,24,02,15,6.90
2016,02,24,02,16,6.90
2016,02,24,02,17,6.90
2016,02,24,02,18,6.90
2016,02,24,02,19,6.90
2016,02,24,02,20,6.90
2016,02,24,02,21,6.90
2016,02,24,02,22,6.90
2016,02,24,02,23,6.90
2016,02,24,02,24,6.90
2016,02,24,02,25,6.90
2016,02,24,02,26,6.90
2016,02,24,02,27,6.90
2016,02,24,02,28,6.90
2016,02,24,02,29,6.90
2016,02,24,02,30,6.90
2016,02,24,02,31,6.90
2016,02,24,02,32,6.90
2016,02,24,02,33,6.90
2016,02,24,02,34,6.90
2016,02,24,02,35,6.90
2016,02,24,02,36,6.90
2016,02,24,02,37,6.90
2016,02,24,02,38,6.90
2016,02,24,02,39,6.90
2016,02,24,02,40,7.00
2016,02,24,02,41,7.00
2016,02,24,02,42,7.00
2016,02,24,02,43,7.00
2016,02,24,02,44,7.00
2016,02,24,02,45,7.00
2016,02,24,02,46,7.00
2016,02,24,02,47,7.00
2016,02,24,02,48,7.00
2016,02,24,02,49,7.10
2016,02,24,02,50,7.10
2016,02,24,02,51,7.10
2016,02,24,02,52,7.10
2016,02,24,02,53,7.10
2016,02,24,02,54,7.10
2016,02,24,02,55,7.20
2016,02,24,02,56,7.20
2016,02,24,02,57,7.10
2016,02,24,02,58,7.10
2016,02,24,02,59,7.10
2016,02,24,03,00,7.10
2016,02,24,03,01,7.10
2016,02,24,03,02,7.10
2016,02,24,03,03,7.10
2016,02,24,03,04,7.10
2016,02,24,03,05,7.10
2016,02,24,03,06,7.20
2016,02,24,03,07,7.20
2016,02,24,03,08,7.20
2016,02,24,03,09,7.20
2016,02,24,03,10,7.20
2016,02,24,03,11,7.20
2016,02,24,03,12,7.30
2016,02,24,03,13,7.20
2016,02,24,03,14,7.20
2016,02,24,03,15,7.20
2016,02,24,03,16,7.20
2016,02,24,03,17,7.20
2016,02,24,03,18,7.20
2016,02,24,03,19,7.20
2016,02,24,03,20,7.20
2016,02,24,03,21,7.20
2016,02,24,03,22,7.20
2016,02,24,03,23,7.20
2016,02,24,03,24,7.20
2016,02,24,03,25,7.20
2016,02,24,03,26,7.20
2016,02,24,03,27,7.10
2016,02,24,03,28,7.10
2016,02,24,03,29,7.10
2016,02,24,03,30,7.10
2016,02,24,03,31,7.10
2016,02,24,03,32,7.10
2016,02,24,03,33,7.10
2016,02,24,03,34,7.10
2016,02,24,03,35,7.10
2016,02,24,03,36,7.10
2016,02,24,03,37,7.00
2016,02,24,03,38,7.00
2016,02,24,03,39,7.00
2016,02,24,03,40,7.00
2016,02,24,03,41,6.90
2016,02,24,03,42,6.90
2016,02,24,03,43,6.90
2016,02,24,03,44,6.90
2016,02,24,03,45,6.90
2016,02,24,03,46,6.90
2016,02,24,03,47,7.00
2016,02,24,03,48,7.00
2016,02,24,03,49,7.00
2016,02,24,03,50,7.10
2016,02,24,03,51,7.10
2016,02,24,03,52,7.20
2016,02,24,03,53,7.20
2016,02,24,03,54,7.30
2016,02,24,03,55,7.30
2016,02,24,03,56,7.30
2016,02,24,03,57,7.30
2016,02,24,03,58,7.40
2016,02,24,03,59,7.40
2016,02,24,04,00,7.40
2016,02,24,04,01,7.40
2016,02,24,04,02,7.30
2016,02,24,04,03,7.30
2016,02,24,04,04,7.30
2016,02,24,04,05,7.30
2016,02,24,04,06,7.20
2016,02,24,04,07,7.20
2016,02,24,04,08,7.20
2016,02,24,04,09,7.10
2016,02,24,04,10,7.10
2016,02,24,04,11,7.10
2016,02,24,04,12,7.10
2016,02,24,04,13,7.10
2016,02,24,04,14,7.00
2016,02,24,04,15,7.00
2016,02,24,04,16,7.00
2016,02,24,04,17,7.00
2016,02,24,04,18,6.90
2016,02,24,04,19,6.90
2016,02,24,04,20,6.90
2016,02,24,04,21,6.90
2016,02,24,04,22,6.90
2016,02,24,04,23,6.90
2016,02,24,04,24,6.90
2016,02,24,04,25,6.90
2016,02,24,04,26,6.90
2016,02,24,04,27,6.90
2016,02,24,04,28,6.90
2016,02,24,04,29,6.90
2016,02,24,04,30,6.90
2016,02,24,04,31,6.90
2016,02,24,04,32,6.90
2016,02,24,04,33,6.90
2016,02,24,04,34,6.90
2016,02,24,04,35,6.90
2016,02,24,04,36,6.90
2016,02,24,04,37,6.80
2016,02,24,04,38,6.80
2016,02,24,04,39,6.80
2016,02,24,04,40,6.80
2016,02,24,04,41,6.80
2016,02,24,04,42,6.80
2016,02,24,04,43,6.80
2016,02,24,04,44,6.80
2016,02,24,04,45,6.70
2016,02,24,04,46,6.70
2016,02,24,04,47,6.70
2016,02,24,04,48,6.70
2016,02,24,04,49,6.70
2016,02,24,04,50,6.70
2016,02,24,04,51,6.80
2016,02,24,04,52,6.80
2016,02,24,04,53,6.80
2016,02,24,04,54,6.80
2016,02,24,04,55,6.80
2016,02,24,04,56,6.80
2016,02,24,04,57,6.80
2016,02,24,04,58,6.80
2016,02,24,04,59,6.80
2016,02,24,05,00,6.80
2016,02,24,05,01,6.80
2016,02,24,05,02,6.80
2016,02,24,05,03,6.80
2016,02,24,05,04,6.80
2016,02,24,05,05,6.80
2016,02,24,05,06,6.80
2016,02,24,05,07,6.80
2016,02,24,05,08,6.80
2016,02,24,05,09,6.80
2016,02,24,05,10,6.90
2016,02,24,05,11,6.90
2016,02,24,05,12,6.90
2016,02,24,05,13,6.90
2016,02,24,05,14,6.90
2016,02,24,05,15,6.90
2016,02,24,05,16,6.90
2016,02,24,05,17,6.90
2016,02,24,05,18,6.90
2016,02,24,05,19,6.90
2016,02,24,05,20,6.90
2016,02,24,05,21,6.90
2016,02,24,05,22,7.00
2016,02,24,05,23,7.00
2016,02,24,05,24,6.90
2016,02,24,05,25,6.90
2016,02,24,05,26,6.90
2016,02,24,05,27,6.90
2016,02,24,05,28,6.90
2016,02,24,05,29,6.90
2016,02,24,05,30,6.90
2016,02,24,05,31,6.90
2016,02,24,05,32,6.80
2016,02,24,05,33,6.80
2016,02,24,05,34,6.80
2016,02,24,05,35,6.80
2016,02,24,05,36,6.80
2016,02,24,05,37,6.80
2016,02,24,05,38,6.80
2016,02,24,05,39,6.80
2016,02,24,05,40,6.80
2016,02,24,05,41,6.80
2016,02,24,05,42,6.80
2016,02,24,05,43,6.80
2016,02,24,05,44,6.80
2016,02,24,05,45,6.80
2016,02,24,05,46,6.80
2016,02,24,05,47,6.80
2016,02,24,05,48,6.80
2016,02,24,05,49,6.80
2016,02,24,05,50,6.80
2016,02,24,05,51,6.80
2016,02,24,05,52,6.80
2016,02,24,05,53,6.70
2016,02,24,05,54,6.70
2016,02,24,05,55,6.70
2016,02,24,05,56,6.70
2016,02,24,05,57,6.70
2016,02,24,05,58,6.70
2016,02,24,05,59,6.70
2016,02,24,06,00,6.70
2016,02,24,06,01,6.70
2016,02,24,06,02,6.70
2016,02,24,06,03,6.70
2016,02,24,06,04,6.70
2016,02,24,06,05,6.70
2016,02,24,06,06,6.70
2016,02,24,06,07,6.70
2016,02,24,06,08,6.70
2016,02,24,06,09,6.70
2016,02,24,06,10,6.70
2016,02,24,06,11,6.70
2016,02,24,06,12,6.70
2016,02,24,06,13,6.70
2016,02,24,06,14,6.70
2016,02,24,06,15,6.70
2016,02,24,06,16,6.70
2016,02,24,06,17,6.70
2016,02,24,06,18,6.70
2016,02,24,06,19,6.60
2016,02,24,06,20,6.60
2016,02,24,06,21,6.60
2016,02,24,06,22,6.60
2016,02,24,06,23,6.60
2016,02,24,06,24,6.60
2016,02,24,06,25,6.60
2016,02,24,06,26,6.50
2016,02,24,06,27,6.50
2016,02,24,06,28,6.50
2016,02,24,06,29,6.50
2016,02,24,06,30,6.50
2016,02,24,06,31,6.40
2016,02,24,06,32,6.40
2016,02,24,06,33,6.40
2016,02,24,06,34,6.40
2016,02,24,06,35,6.40
2016,02,24,06,36,6.30
2016,02,24,06,37,6.30
2016,02,24,06,38,6.30
2016,02,24,06,39,6.30
2016,02,24,06,40,6.30
2016,02,24,06,41,6.30
2016,02,24,06,42,6.30
2016,02,24,06,43,6.30
2016,02,24,06,44,6.30
2016,02,24,06,45,6.30
2016,02,24,06,46,6.30
2016,02,24,06,47,6.30
2016,02,24,06,48,6.30
2016,02,24,06,49,6.30
2016,02,24,06,50,6.30
2016,02,24,06,51,6.30
2016,02,24,06,52,6.30
2016,02,24,06,53,6.30
2016,02,24,06,54,6.30
2016,02,24,06,55,6.30
2016,02,24,06,56,6.30
2016,02,24,06,57,6.30
2016,02,24,06,58,6.30
2016,02,24,06,59,6.30
2016,02,24,07,00,6.30
2016,02,24,07,01,6.30
2016,02,24,07,02,6.30
2016,02,24,07,03,6.30
2016,02,24,07,04,6.30
2016,02,24,07,05,6.30
2016,02,24,07,06,6.30
2016,02,24,07,07,6.30
2016,02,24,07,08,6.30
2016,02,24,07,09,6.30
2016,02,24,07,10,6.30
2016,02,24,07,11,6.30
2016,02,24,07,12,6.30
2016,02,24,07,13,6.30
2016,02,24,07,14,6.30
2016,02,24,07,15,6.30
2016,02,24,07,16,6.30
2016,02,24,07,17,6.20
2016,02,24,07,18,6.20
2016,02,24,07,19,6.20
2016,02,24,07,20,6.20
2016,02,24,07,21,6.20
2016,02,24,07,22,6.20
2016,02,24,07,23,6.20
2016,02,24,07,24,6.20
2016,02,24,07,25,6.20
2016,02,24,07,26,6.20
2016,02,24,07,27,6.20
2016,02,24,07,28,6.20
2016,02,24,07,29,6.20
2016,02,24,07,30,6.20
2016,02,24,07,31,6.20
2016,02,24,07,32,6.10
2016,02,24,07,33,6.10
2016,02,24,07,34,6.10
2016,02,24,07,35,6.10
2016,02,24,07,36,6.10
2016,02,24,07,37,6.10
2016,02,24,07,38,6.10
2016,02,24,07,39,6.10
2016,02,24,07,40,6.10
2016,02,24,07,41,6.10
2016,02,24,07,42,6.10
2016,02,24,07,43,6.10
2016,02,24,07,44,6.10
2016,02,24,07,45,6.10
2016,02,24,07,46,6.10
2016,02,24,07,47,6.10
2016,02,24,07,48,6.10
2016,02,24,07,49,6.10
2016,02,24,07,50,6.00
2016,02,24,07,51,6.00
2016,02,24,07,52,6.00
2016,02,24,07,53,6.00
2016,02,24,07,54,6.00
2016,02,24,07,55,6.00
2016,02,24,07,56,6.00
2016,02,24,07,57,6.00
2016,02,24,07,58,6.00
2016,02,24,07,59,6.00
2016,02,24,08,00,6.00
2016,02,24,08,01,6.00
2016,02,24,08,02,6.00
2016,02,24,08,03,6.00
2016,02,24,08,04,6.00
2016,02,24,08,05,6.00
2016,02,24,08,06,6.00
2016,02,24,08,07,6.00
2016,02,24,08,08,6.00
2016,02,24,08,09,6.00
2016,02,24,08,10,6.00
2016,02,24,08,11,6.00
2016,02,24,08,12,6.00
2016,02,24,08,13,6.00
2016,02,24,08,14,6.00
2016,02,24,08,15,6.00
2016,02,24,08,16,6.10
2016,02,24,08,17,6.00
2016,02,24,08,18,6.10
2016,02,24,08,19,6.10
2016,02,24,08,20,6.10
2016,02,24,08,21,6.10
2016,02,24,08,22,6.20
2016,02,24,08,23,6.20
2016,02,24,08,24,6.20
2016,02,24,08,25,6.20
2016,02,24,08,26,6.20
2016,02,24,08,27,6.30
2016,02,24,08,28,6.30
2016,02,24,08,29,6.30
2016,02,24,08,30,6.30
2016,02,24,08,31,6.30
2016,02,24,08,32,6.30
2016,02,24,08,33,6.40
2016,02,24,08,34,6.40
2016,02,24,08,35,6.40
2016,02,24,08,36,6.40
2016,02,24,08,37,6.40
2016,02,24,08,38,6.40
2016,02,24,08,39,6.50
2016,02,24,08,40,6.50
2016,02,24,08,41,6.50
2016,02,24,08,42,6.60
2016,02,24,08,43,6.60
2016,02,24,08,44,6.60
2016,02,24,08,45,6.60
2016,02,24,08,46,6.60
2016,02,24,08,47,6.60
2016,02,24,08,48,6.70
2016,02,24,08,49,6.70
2016,02,24,08,50,6.70
2016,02,24,08,51,6.70
2016,02,24,08,52,6.70
2016,02,24,08,53,6.70
2016,02,24,08,54,6.70
2016,02,24,08,55,6.80
2016,02,24,08,56,6.80
2016,02,24,08,57,6.80
2016,02,24,08,58,6.80
2016,02,24,08,59,6.80
2016,02,24,09,00,6.90
2016,02,24,09,01,6.90
2016,02,24,09,02,6.90
2016,02,24,09,03,6.90
2016,02,24,09,04,7.00
2016,02,24,09,05,7.00
2016,02,24,09,06,7.10
2016,02,24,09,07,7.10
2016,02,24,09,08,7.10
2016,02,24,09,09,7.20
2016,02,24,09,10,7.20
2016,02,24,09,11,7.20
2016,02,24,09,12,7.30
2016,02,24,09,13,7.30
2016,02,24,09,14,7.30
2016,02,24,09,15,7.40
2016,02,24,09,16,7.40
2016,02,24,09,17,7.50
2016,02,24,09,18,7.50
2016,02,24,09,19,7.50
2016,02,24,09,20,7.60
2016,02,24,09,21,7.60
2016,02,24,09,22,7.60
2016,02,24,09,23,7.70
2016,02,24,09,24,7.70
2016,02,24,09,25,7.70
2016,02,24,09,26,7.80
2016,02,24,09,27,7.80
2016,02,24,09,28,7.80
2016,02,24,09,29,7.90
2016,02,24,09,30,7.90
2016,02,24,09,31,7.90
2016,02,24,09,32,8.00
2016,02,24,09,33,8.00
2016,02,24,09,34,8.10
2016,02,24,09,35,8.10
2016,02,24,09,36,8.10
2016,02,24,09,37,8.10
2016,02,24,09,38,8.20
2016,02,24,09,39,8.20
2016,02,24,09,40,8.20
2016,02,24,09,41,8.30
2016,02,24,09,42,8.30
2016,02,24,09,43,8.30
2016,02,24,09,44,8.30
2016,02,24,09,45,8.30
2016,02,24,09,46,8.30
2016,02,24,09,47,8.30
2016,02,24,09,48,8.30
2016,02,24,09,49,8.40
2016,02,24,09,50,8.40
2016,02,24,09,51,8.40
2016,02,24,09,52,8.40
2016,02,24,09,53,8.40
2016,02,24,09,54,8.40
2016,02,24,09,55,8.50
2016,02,24,09,56,8.50
2016,02,24,09,57,8.50
2016,02,24,09,58,8.60
2016,02,24,09,59,8.60
2016,02,24,10,00,8.70
2016,02,24,10,01,8.70
2016,02,24,10,02,8.80
2016,02,24,10,03,8.90
2016,02,24,10,04,8.90
2016,02,24,10,05,9.00
2016,02,24,10,06,9.10
2016,02,24,10,07,9.10
2016,02,24,10,08,9.20
2016,02,24,10,09,9.30
2016,02,24,10,10,9.30
2016,02,24,10,11,9.40
2016,02,24,10,12,9.40
2016,02,24,10,13,9.50
2016,02,24,10,14,9.50
2016,02,24,10,15,9.50
2016,02,24,10,16,9.60
2016,02,24,10,17,9.60
2016,02,24,10,18,9.70
2016,02,24,10,19,9.70
2016,02,24,10,20,9.80
2016,02,24,10,21,9.90
2016,02,24,10,22,9.90
2016,02,24,10,23,10.00
2016,02,24,10,24,10.00
2016,02,24,10,25,10.00
2016,02,24,10,26,10.00
2016,02,24,10,27,10.00
2016,02,24,10,28,10.10
2016,02,24,10,29,10.10
2016,02,24,10,30,10.10
2016,02,24,10,31,10.10
2016,02,24,10,32,10.10
2016,02,24,10,33,10.10
2016,02,24,10,34,10.10
2016,02,24,10,35,10.00
2016,02,24,10,36,10.00
2016,02,24,10,37,9.90
2016,02,24,10,38,9.90
2016,02,24,10,39,9.90
2016,02,24,10,40,9.90
2016,02,24,10,41,9.90
2016,02,24,10,42,10.00
2016,02,24,10,43,10.00
2016,02,24,10,44,10.00
2016,02,24,10,45,10.10
2016,02,24,10,46,10.10
2016,02,24,10,47,10.10
2016,02,24,10,48,10.00
2016,02,24,10,49,10.00
2016,02,24,10,50,10.00
2016,02,24,10,51,10.00
2016,02,24,10,52,10.00
2016,02,24,10,53,10.00
2016,02,24,10,54,10.00
2016,02,24,10,55,10.10
2016,02,24,10,56,10.10
2016,02,24,10,57,10.10
2016,02,24,10,58,10.10
2016,02,24,10,59,10.10
2016,02,24,11,00,10.10
2016,02,24,11,01,10.10
2016,02,24,11,02,10.10
2016,02,24,11,03,10.10
2016,02,24,11,04,10.10
2016,02,24,11,05,10.10
2016,02,24,11,06,10.10
